Location: Étavigny
(49.1201°N, 2.9800°E)
Time: 22:57:51
(UTC+00:00)

Lacrosse 5 rocket - Pass Details

Date: 28 January 2023
Orbit: 455 x 612 km, 57.0° (Epoch: 01 April)

Event Time Altitude Azimuth Distance (km) Brightness Sun altitude
Rises 18:47:25 0° 300° (WNW) 2,479 5.6 -21.1°
Reaches altitude 10° 18:49:45 10° 313° (NW) 1,612 4.3 -21.5°
Enters shadow 18:52:10 25° 353° (N) 978 2.6 -21.9°
